Time,TemperatureF,DewpointF,PressureIn,WindDirection,WindDirectionDegrees,WindSpeedMPH,WindSpeedGustMPH,Humidity,HourlyPrecipIn,Conditions,Clouds,dailyrainin,SoftwareType,DateUTC
2013-04-19 00:10:00,58.3,42.7,30.02,East,80,3.0,6.0,56,0.00,,,0.00,Wunderground v.1.15,2013-04-18 21:10:00,
2013-04-19 00:20:00,58.1,42.5,30.02,NNE,25,6.0,6.0,56,0.00,,,0.00,Wunderground v.1.15,2013-04-18 21:20:00,
2013-04-19 00:25:00,58.1,42.5,30.02,East,82,5.0,6.0,56,0.00,,,0.00,Wunderground v.1.15,2013-04-18 21:25:00,
2013-04-19 00:35:00,57.9,42.3,30.02,East,90,6.0,6.0,56,0.00,,,0.00,Wunderground v.1.15,2013-04-18 21:35:00,
2013-04-19 00:40:00,57.9,42.8,30.02,East,94,6.0,6.0,57,0.00,,,0.00,Wunderground v.1.15,2013-04-18 21:40:00,
2013-04-19 00:46:00,57.8,42.2,30.02,ENE,73,6.0,6.0,56,0.00,,,0.00,Wunderground v.1.15,2013-04-18 21:46:00,
2013-04-19 00:55:00,57.8,42.2,30.02,East,80,6.0,12.0,56,0.00,,,0.00,Wunderground v.1.15,2013-04-18 21:55:00,
2013-04-19 01:05:00,57.8,42.2,30.02,ENE,70,6.0,7.0,56,0.00,,,0.00,Wunderground v.1.15,2013-04-18 22:05:00,
2013-04-19 01:10:00,57.8,42.2,30.02,East,94,6.0,10.0,56,0.00,,,0.00,Wunderground v.1.15,2013-04-18 22:10:00,
2013-04-19 01:20:00,57.8,42.2,30.02,ENE,75,8.0,11.0,56,0.00,,,0.00,Wunderground v.1.15,2013-04-18 22:20:00,
2013-04-19 01:25:00,57.8,42.2,30.02,ENE,76,8.0,12.0,56,0.00,,,0.00,Wunderground v.1.15,2013-04-18 22:25:00,
2013-04-19 01:35:00,57.9,42.3,30.01,SE,146,9.0,9.0,56,0.00,,,0.00,Wunderground v.1.15,2013-04-18 22:35:00,
2013-04-19 01:40:00,57.9,42.3,30.01,East,89,8.0,12.0,56,0.00,,,0.00,Wunderground v.1.15,2013-04-18 22:40:00,
2013-04-19 01:50:00,57.9,42.3,30.01,East,82,8.0,10.0,56,0.00,,,0.00,Wunderground v.1.15,2013-04-18 22:50:00,
2013-04-19 01:55:00,57.9,42.8,30.01,ESE,110,7.0,10.0,57,0.00,,,0.00,Wunderground v.1.15,2013-04-18 22:55:00,
2013-04-19 02:05:00,57.8,42.7,30.00,ENE,59,6.0,15.0,57,0.00,,,0.00,Wunderground v.1.15,2013-04-18 23:05:00,
2013-04-19 02:20:00,57.7,42.6,30.00,ESE,106,6.0,6.0,57,0.00,,,0.00,Wunderground v.1.15,2013-04-18 23:20:00,
2013-04-19 02:25:00,57.7,42.6,30.00,East,85,7.0,7.0,57,0.00,,,0.00,Wunderground v.1.15,2013-04-18 23:25:00,
2013-04-19 02:35:00,57.7,42.6,29.99,East,91,7.0,7.0,57,0.00,,,0.00,Wunderground v.1.15,2013-04-18 23:35:00,
2013-04-19 02:50:00,57.8,42.7,29.98,ESE,118,7.0,11.0,57,0.00,,,0.00,Wunderground v.1.15,2013-04-18 23:50:00,
2013-04-19 02:55:00,57.8,42.7,29.98,East,99,7.0,11.0,57,0.00,,,0.00,Wunderground v.1.15,2013-04-18 23:55:00,
2013-04-19 03:00:00,57.8,42.7,29.98,ESE,109,6.0,9.0,57,0.00,,,0.00,Wunderground v.1.15,2013-04-19 00:00:00,
2013-04-19 03:10:00,57.7,42.6,29.98,ENE,71,2.0,3.0,57,0.00,,,0.00,Wunderground v.1.15,2013-04-19 00:10:00,
2013-04-19 03:20:00,57.5,42.8,29.98,ENE,60,3.0,3.0,58,0.00,,,0.00,Wunderground v.1.15,2013-04-19 00:20:00,
2013-04-19 03:35:00,57.3,42.6,29.98,East,91,5.0,7.0,58,0.00,,,0.00,Wunderground v.1.15,2013-04-19 00:35:00,
2013-04-19 03:46:00,57.2,42.5,29.98,East,96,4.0,4.0,58,0.00,,,0.00,Wunderground v.1.15,2013-04-19 00:46:00,
2013-04-19 03:55:00,57.2,42.5,29.98,East,80,3.0,4.0,58,0.00,,,0.00,Wunderground v.1.15,2013-04-19 00:55:00,
2013-04-19 04:00:00,57.3,42.2,29.98,ESE,102,4.0,6.0,57,0.00,,,0.00,Wunderground v.1.15,2013-04-19 01:00:00,
2013-04-19 04:10:00,57.3,42.2,29.98,ESE,105,5.0,15.0,57,0.00,,,0.00,Wunderground v.1.15,2013-04-19 01:10:00,
2013-04-19 04:20:00,57.3,42.2,29.97,ENE,78,5.0,5.0,57,0.00,,,0.00,Wunderground v.1.15,2013-04-19 01:20:00,
2013-04-19 04:35:00,57.2,42.1,29.97,ENE,76,6.0,11.0,57,0.00,,,0.00,Wunderground v.1.15,2013-04-19 01:35:00,
2013-04-19 04:46:00,57.0,41.9,29.97,East,79,5.0,5.0,57,0.00,,,0.00,Wunderground v.1.15,2013-04-19 01:46:00,
2013-04-19 04:55:00,56.8,42.2,29.97,East,84,4.0,5.0,58,0.00,,,0.00,Wunderground v.1.15,2013-04-19 01:55:00,
2013-04-19 05:05:00,56.6,42.0,29.96,ENE,72,4.0,4.0,58,0.00,,,0.00,Wunderground v.1.15,2013-04-19 02:05:00,
2013-04-19 05:20:00,56.6,42.0,29.96,East,87,4.0,5.0,58,0.00,,,0.00,Wunderground v.1.15,2013-04-19 02:20:00,
2013-04-19 05:35:00,56.5,42.3,29.95,East,92,6.0,6.0,59,0.00,,,0.00,Wunderground v.1.15,2013-04-19 02:35:00,
2013-04-19 05:50:00,56.3,42.1,29.95,ESE,103,6.0,7.0,59,0.00,,,0.00,Wunderground v.1.15,2013-04-19 02:50:00,
2013-04-19 06:05:00,56.1,42.4,29.95,East,100,5.0,12.0,60,0.00,,,0.00,Wunderground v.1.15,2013-04-19 03:05:00,
2013-04-19 06:20:00,55.9,42.6,29.96,East,97,6.0,6.0,61,0.00,,,0.00,Wunderground v.1.15,2013-04-19 03:20:00,
2013-04-19 06:35:00,55.7,42.9,29.96,ESE,109,6.0,6.0,62,0.00,,,0.00,Wunderground v.1.15,2013-04-19 03:35:00,
2013-04-19 06:45:00,55.8,43.0,29.96,ENE,74,6.0,6.0,62,0.00,,,0.00,Wunderground v.1.15,2013-04-19 03:45:00,
2013-04-19 06:55:00,55.8,42.5,29.97,East,84,6.0,7.0,61,0.00,,,0.00,Wunderground v.1.15,2013-04-19 03:55:00,
2013-04-19 07:05:00,55.9,43.1,29.97,East,82,5.0,6.0,62,0.00,,,0.00,Wunderground v.1.15,2013-04-19 04:05:00,
2013-04-19 07:10:00,55.9,43.1,29.97,East,91,5.0,6.0,62,0.00,,,0.00,Wunderground v.1.15,2013-04-19 04:10:00,
2013-04-19 07:20:00,55.9,43.1,29.97,ESE,102,5.0,5.0,62,0.00,,,0.00,Wunderground v.1.15,2013-04-19 04:20:00,
2013-04-19 07:35:00,56.1,43.3,29.97,ESE,111,6.0,6.0,62,0.00,,,0.00,Wunderground v.1.15,2013-04-19 04:35:00,
2013-04-19 07:40:00,56.2,43.8,29.97,SE,133,6.0,6.0,63,0.00,,,0.00,Wunderground v.1.15,2013-04-19 04:40:00,
2013-04-19 07:50:00,56.4,44.0,29.97,ESE,118,6.0,6.0,63,0.00,,,0.00,Wunderground v.1.15,2013-04-19 04:50:00,
2013-04-19 07:55:00,56.5,44.0,29.97,East,101,6.0,6.0,63,0.00,,,0.00,Wunderground v.1.15,2013-04-19 04:55:00,
2013-04-19 08:05:00,56.7,44.2,29.97,East,101,6.0,6.0,63,0.00,,,0.00,Wunderground v.1.15,2013-04-19 05:05:00,
2013-04-19 08:10:00,56.9,44.8,29.97,ENE,59,5.0,6.0,64,0.00,,,0.00,Wunderground v.1.15,2013-04-19 05:10:00,
2013-04-19 08:15:00,56.9,44.4,29.97,ESE,114,5.0,5.0,63,0.00,,,0.00,Wunderground v.1.15,2013-04-19 05:15:00,
2013-04-19 08:25:00,57.3,44.8,29.97,ESE,119,5.0,12.0,63,0.00,,,0.00,Wunderground v.1.15,2013-04-19 05:25:00,
2013-04-19 08:35:00,57.5,44.1,29.96,East,88,7.0,7.0,61,0.00,,,0.00,Wunderground v.1.15,2013-04-19 05:35:00,
2013-04-19 08:40:00,57.6,44.2,29.96,ESE,113,8.0,11.0,61,0.00,,,0.00,Wunderground v.1.15,2013-04-19 05:40:00,
2013-04-19 08:50:00,57.8,44.4,29.96,East,101,9.0,12.0,61,0.00,,,0.00,Wunderground v.1.15,2013-04-19 05:50:00,
2013-04-19 09:05:00,58.4,45.0,29.96,ESE,121,7.0,7.0,61,0.00,,,0.00,Wunderground v.1.15,2013-04-19 06:05:00,
2013-04-19 09:10:00,58.7,45.3,29.96,ESE,117,6.0,7.0,61,0.00,,,0.00,Wunderground v.1.15,2013-04-19 06:10:00,
2013-04-19 09:20:00,59.1,45.7,29.97,ESE,115,8.0,9.0,61,0.00,,,0.00,Wunderground v.1.15,2013-04-19 06:20:00,
2013-04-19 09:35:00,59.4,45.5,29.97,ESE,114,7.0,7.0,60,0.00,,,0.00,Wunderground v.1.15,2013-04-19 06:35:00,
2013-04-19 09:50:00,60.5,46.5,29.97,ESE,105,6.0,6.0,60,0.00,,,0.00,Wunderground v.1.15,2013-04-19 06:50:00,
2013-04-19 10:05:00,60.9,46.5,29.97,SE,132,7.0,7.0,59,0.00,,,0.00,Wunderground v.1.15,2013-04-19 07:05:00,
2013-04-19 10:20:00,62.1,47.1,29.97,SSE,148,6.0,6.0,58,0.00,,,0.00,Wunderground v.1.15,2013-04-19 07:20:00,
2013-04-19 10:31:00,62.7,47.2,29.97,ESE,113,6.0,10.0,57,0.00,,,0.00,Wunderground v.1.15,2013-04-19 07:31:00,
2013-04-19 10:40:00,62.5,46.6,29.97,ESE,114,9.0,11.0,56,0.00,,,0.00,Wunderground v.1.15,2013-04-19 07:40:00,
2013-04-19 10:50:00,62.7,46.3,29.96,ESE,123,11.0,15.0,55,0.00,,,0.00,Wunderground v.1.15,2013-04-19 07:50:00,
2013-04-19 11:05:00,63.3,46.4,29.96,ESE,108,11.0,14.0,54,0.00,,,0.00,Wunderground v.1.15,2013-04-19 08:05:00,
2013-04-19 11:10:00,63.2,46.8,29.96,SE,126,12.0,14.0,55,0.00,,,0.00,Wunderground v.1.15,2013-04-19 08:10:00,
2013-04-19 11:20:00,63.5,47.0,29.96,ESE,121,12.0,13.0,55,0.00,,,0.00,Wunderground v.1.15,2013-04-19 08:20:00,
2013-04-19 11:25:00,63.4,46.9,29.96,ESE,114,13.0,17.0,55,0.00,,,0.00,Wunderground v.1.15,2013-04-19 08:25:00,
2013-04-19 11:35:00,62.9,47.0,29.96,ESE,109,11.0,17.0,56,0.00,,,0.00,Wunderground v.1.15,2013-04-19 08:35:00,
2013-04-19 11:50:00,62.0,47.0,29.97,ESE,105,11.0,12.0,58,0.00,,,0.00,Wunderground v.1.15,2013-04-19 08:50:00,
2013-04-19 11:55:00,61.6,46.7,29.97,ESE,102,11.0,13.0,58,0.00,,,0.00,Wunderground v.1.15,2013-04-19 08:55:00,
2013-04-19 12:05:00,61.0,46.6,29.96,ESE,103,13.0,13.0,59,0.00,,,0.00,Wunderground v.1.15,2013-04-19 09:05:00,
2013-04-19 12:20:00,61.0,47.0,29.96,ENE,78,9.0,11.0,60,0.00,,,0.00,Wunderground v.1.15,2013-04-19 09:20:00,
2013-04-19 12:31:00,62.1,47.6,29.96,ESE,107,11.0,12.0,59,0.00,,,0.00,Wunderground v.1.15,2013-04-19 09:31:00,
2013-04-19 12:40:00,61.4,48.3,29.98,ESE,115,15.0,15.0,62,0.00,,,0.00,Wunderground v.1.15,2013-04-19 09:40:00,
2013-04-19 12:50:00,58.6,48.5,29.98,ENE,70,14.0,14.0,69,0.00,,,0.00,Wunderground v.1.15,2013-04-19 09:50:00,
2013-04-19 12:55:00,58.3,48.6,29.98,SE,132,9.0,14.0,70,0.00,,,0.00,Wunderground v.1.15,2013-04-19 09:55:00,
2013-04-19 13:05:00,58.3,48.6,29.97,SE,142,12.0,12.0,70,0.00,,,0.00,Wunderground v.1.15,2013-04-19 10:05:00,
2013-04-19 13:20:00,58.8,48.6,29.96,SE,139,5.0,5.0,69,0.00,,,0.00,Wunderground v.1.15,2013-04-19 10:20:00,
2013-04-19 13:25:00,59.8,49.2,29.96,SSE,150,4.0,5.0,68,0.00,,,0.00,Wunderground v.1.15,2013-04-19 10:25:00,
2013-04-19 13:35:00,60.3,50.1,29.96,South,182,6.0,7.0,69,0.00,,,0.00,Wunderground v.1.15,2013-04-19 10:35:00,
2013-04-19 13:50:00,61.7,49.4,29.96,ESE,119,7.0,11.0,64,0.00,,,0.00,Wunderground v.1.15,2013-04-19 10:50:00,
2013-04-19 14:05:00,63.2,49.1,29.96,SSE,149,10.0,29.0,60,0.00,,,0.00,Wunderground v.1.15,2013-04-19 11:05:00,
2013-04-19 14:20:00,62.2,47.2,29.96,ESE,115,14.0,16.0,58,0.00,,,0.00,Wunderground v.1.15,2013-04-19 11:20:00,
2013-04-19 14:30:00,62.2,47.7,29.96,East,94,11.0,14.0,59,0.00,,,0.00,Wunderground v.1.15,2013-04-19 11:30:00,
2013-04-19 14:40:00,62.2,47.7,29.96,ESE,114,12.0,15.0,59,0.00,,,0.00,Wunderground v.1.15,2013-04-19 11:40:00,
2013-04-19 14:50:00,61.9,47.4,29.96,East,101,12.0,16.0,59,0.00,,,0.00,Wunderground v.1.15,2013-04-19 11:50:00,
2013-04-19 15:05:00,62.0,48.4,29.96,East,99,9.0,9.0,61,0.00,,,0.00,Wunderground v.1.15,2013-04-19 12:05:00,
2013-04-19 15:20:00,63.2,48.2,29.95,ESE,107,5.0,5.0,58,0.00,,,0.00,Wunderground v.1.15,2013-04-19 12:20:00,
2013-04-19 15:35:00,62.8,46.9,29.95,ESE,121,12.0,15.0,56,0.00,,,0.00,Wunderground v.1.15,2013-04-19 12:35:00,
2013-04-19 15:50:00,63.3,46.9,29.94,ESE,116,14.0,14.0,55,0.00,,,0.00,Wunderground v.1.15,2013-04-19 12:50:00,
2013-04-19 16:05:00,63.7,46.7,29.94,ESE,123,12.0,15.0,54,0.00,,,0.00,Wunderground v.1.15,2013-04-19 13:05:00,
2013-04-19 16:20:00,63.3,46.9,29.94,East,97,14.0,15.0,55,0.00,,,0.00,Wunderground v.1.15,2013-04-19 13:20:00,
2013-04-19 16:30:00,63.7,47.2,29.94,East,86,12.0,13.0,55,0.00,,,0.00,Wunderground v.1.15,2013-04-19 13:30:00,
2013-04-19 16:40:00,62.8,46.4,29.94,ESE,113,16.0,16.0,55,0.20,,,0.05,Wunderground v.1.15,2013-04-19 13:40:00,
2013-04-19 16:50:00,63.0,47.1,29.94,ESE,114,11.0,11.0,56,0.05,,,0.05,Wunderground v.1.15,2013-04-19 13:50:00,
2013-04-19 17:05:00,63.4,46.9,29.95,SE,125,13.0,13.0,55,0.00,,,0.05,Wunderground v.1.15,2013-04-19 14:05:00,
2013-04-19 17:20:00,63.1,46.7,29.95,ESE,122,15.0,15.0,55,0.00,,,0.05,Wunderground v.1.15,2013-04-19 14:20:00,
2013-04-19 17:25:00,63.0,47.1,29.95,SE,126,13.0,15.0,56,0.00,,,0.05,Wunderground v.1.15,2013-04-19 14:25:00,
2013-04-19 17:35:00,63.0,47.1,29.95,ESE,116,12.0,15.0,56,0.00,,,0.05,Wunderground v.1.15,2013-04-19 14:35:00,
2013-04-19 17:50:00,63.0,47.1,29.95,ESE,110,13.0,14.0,56,0.00,,,0.05,Wunderground v.1.15,2013-04-19 14:50:00,
2013-04-19 17:55:00,62.8,46.9,29.95,East,88,12.0,16.0,56,0.00,,,0.05,Wunderground v.1.15,2013-04-19 14:55:00,
2013-04-19 18:05:00,62.6,46.7,29.95,ESE,114,13.0,25.0,56,0.00,,,0.05,Wunderground v.1.15,2013-04-19 15:05:00,
2013-04-19 18:20:00,62.7,45.8,29.95,ESE,119,12.0,12.0,54,0.00,,,0.05,Wunderground v.1.15,2013-04-19 15:20:00,
2013-04-19 18:25:00,63.1,46.7,29.95,East,93,10.0,12.0,55,0.00,,,0.05,Wunderground v.1.15,2013-04-19 15:25:00,
2013-04-19 18:31:00,62.8,46.4,29.95,East,89,10.0,17.0,55,0.00,,,0.05,Wunderground v.1.15,2013-04-19 15:31:00,
2013-04-19 18:40:00,62.5,46.1,29.95,ESE,123,12.0,17.0,55,0.00,,,0.05,Wunderground v.1.15,2013-04-19 15:40:00,
2013-04-19 18:50:00,62.2,45.3,29.96,ESE,103,12.0,12.0,54,0.00,,,0.05,Wunderground v.1.15,2013-04-19 15:50:00,
2013-04-19 18:55:00,62.0,45.6,29.96,ESE,118,12.0,12.0,55,0.00,,,0.05,Wunderground v.1.15,2013-04-19 15:55:00,
2013-04-19 19:05:00,62.1,46.7,29.96,ESE,107,7.0,10.0,57,0.00,,,0.05,Wunderground v.1.15,2013-04-19 16:05:00,
2013-04-19 19:10:00,62.0,46.6,29.96,ESE,121,8.0,10.0,57,0.00,,,0.05,Wunderground v.1.15,2013-04-19 16:10:00,
2013-04-19 19:20:00,61.7,46.3,29.96,ESE,107,8.0,8.0,57,0.00,,,0.05,Wunderground v.1.15,2013-04-19 16:20:00,
2013-04-19 19:35:00,61.5,45.7,29.96,ESE,123,7.0,7.0,56,0.00,,,0.05,Wunderground v.1.15,2013-04-19 16:35:00,
2013-04-19 19:50:00,61.3,45.9,29.97,ESE,115,5.0,5.0,57,0.00,,,0.05,Wunderground v.1.15,2013-04-19 16:50:00,
2013-04-19 20:05:00,61.0,45.7,29.97,ESE,109,5.0,23.0,57,0.00,,,0.05,Wunderground v.1.15,2013-04-19 17:05:00,
2013-04-19 20:20:00,60.7,45.4,29.98,ESE,111,6.0,6.0,57,0.00,,,0.05,Wunderground v.1.15,2013-04-19 17:20:00,
2013-04-19 20:31:00,60.5,45.2,29.98,ESE,105,6.0,6.0,57,0.00,,,0.05,Wunderground v.1.15,2013-04-19 17:31:00,
2013-04-19 20:40:00,60.5,45.2,29.98,East,99,7.0,12.0,57,0.00,,,0.05,Wunderground v.1.15,2013-04-19 17:40:00,
2013-04-19 20:50:00,60.3,45.0,29.98,ESE,107,8.0,8.0,57,0.00,,,0.05,Wunderground v.1.15,2013-04-19 17:50:00,
2013-04-19 20:55:00,60.2,45.4,29.98,ESE,102,7.0,8.0,58,0.00,,,0.05,Wunderground v.1.15,2013-04-19 17:55:00,
2013-04-19 21:05:00,60.1,45.7,29.98,ESE,117,6.0,6.0,59,0.00,,,0.05,Wunderground v.1.15,2013-04-19 18:05:00,
2013-04-19 21:20:00,60.0,45.6,29.99,East,98,5.0,8.0,59,0.00,,,0.05,Wunderground v.1.15,2013-04-19 18:20:00,
2013-04-19 21:35:00,59.6,45.7,29.99,East,97,5.0,6.0,60,0.00,,,0.05,Wunderground v.1.15,2013-04-19 18:35:00,
2013-04-19 21:40:00,59.4,45.5,29.99,ESE,119,6.0,7.0,60,0.00,,,0.05,Wunderground v.1.15,2013-04-19 18:40:00,
2013-04-19 21:50:00,59.2,45.8,29.99,ESE,110,4.0,9.0,61,0.00,,,0.05,Wunderground v.1.15,2013-04-19 18:50:00,
2013-04-19 22:00:00,59.0,45.6,29.99,NE,54,4.0,5.0,61,0.00,,,0.05,Wunderground v.1.15,2013-04-19 19:00:00,
2013-04-19 22:10:00,58.8,45.4,29.99,ESE,105,6.0,6.0,61,0.00,,,0.05,Wunderground v.1.15,2013-04-19 19:10:00,
2013-04-19 22:20:00,58.7,45.7,29.99,East,85,4.0,6.0,62,0.00,,,0.05,Wunderground v.1.15,2013-04-19 19:20:00,
2013-04-19 22:25:00,58.6,45.6,29.99,East,91,4.0,6.0,62,0.00,,,0.05,Wunderground v.1.15,2013-04-19 19:25:00,
2013-04-19 22:35:00,58.4,45.4,29.99,East,96,6.0,7.0,62,0.00,,,0.05,Wunderground v.1.15,2013-04-19 19:35:00,
2013-04-19 22:50:00,58.4,45.0,29.99,ESE,103,4.0,4.0,61,0.00,,,0.05,Wunderground v.1.15,2013-04-19 19:50:00,
2013-04-19 22:55:00,58.4,45.0,29.99,ESE,110,4.0,4.0,61,0.00,,,0.05,Wunderground v.1.15,2013-04-19 19:55:00,
2013-04-19 23:05:00,58.3,44.9,29.99,East,86,4.0,6.0,61,0.00,,,0.05,Wunderground v.1.15,2013-04-19 20:05:00,
2013-04-19 23:10:00,58.2,44.8,29.99,ESE,102,4.0,6.0,61,0.00,,,0.05,Wunderground v.1.15,2013-04-19 20:10:00,
2013-04-19 23:16:00,58.2,44.8,29.99,East,91,5.0,5.0,61,0.00,,,0.05,Wunderground v.1.15,2013-04-19 20:16:00,
2013-04-19 23:25:00,58.2,-99.9,29.99,East,101,4.0,5.0,255,0.00,,,0.05,Wunderground v.1.15,2013-04-19 20:25:00,
2013-04-19 23:35:00,58.1,44.7,29.98,ESE,106,4.0,4.0,61,0.00,,,0.05,Wunderground v.1.15,2013-04-19 20:35:00,
2013-04-19 23:46:00,58.1,44.7,29.98,East,100,3.0,3.0,61,0.00,,,0.05,Wunderground v.1.15,2013-04-19 20:46:00,
2013-04-19 23:55:00,58.1,44.7,29.98,East,97,3.0,6.0,61,0.00,,,0.05,Wunderground v.1.15,2013-04-19 20:55:00,